Home > Weather > Solothurn > Past weeks

Flag for Switzerland Weather for the Past 2 Weeks in Solothurn, Solothurn, Switzerland

Now
45 °F

Cool.


Feels Like: 45 °F
Forecast: 33 / 61 °F
Wind: 1 mph from Southwest

Location: Grenchen

Current Time: Apr 30, 2016 at 12:00:42 AM

Latest Report: Apr 29, 2016 at 10:00 PM


Visibility: N/A

Pressure: 30.06 "Hg

Humidity: 77%

Dew Point: 38 °F

Location of SolothurnLocation

Historic Weather in Solothurn — Graph

°F

Solothurn Temperature Yesterday

Maximum temperature yesterday: 60 °F (at 6:00 PM)
Minimum temperature yesterday: 31 °F (at 6:00 AM)
Average temperature yesterday: 47 °F

High & Low Weather Summary for the Past Weeks

 TemperatureHumidityPressure
High70 °F (Apr 21, 5:00 PM)100% (Apr 29, 6:00 AM)30.36 "Hg (Apr 29, 6:00 AM)
Low28 °F (Apr 28, 7:00 AM)38% (Apr 28, 3:00 PM)29.66 "Hg (Apr 16, 8:00 PM)
Average49 °F74%29.99 "Hg
* Reported Apr 14 10:00 PM — Apr 29 10:00 PM, Solothurn, Weather by CustomWeather, © 2016

Note: Actual official high and low records may vary slightly from our data, if they occured in-between our weather recording intervals... More about our weather records

Advertising

Solothurn Weather History for the Previous 24 Hours

Scroll right to see more
 ConditionsComfort  
Time TempWeatherWind HumidityBarometerVisibility
10:00 PM
Fri, Apr 29
45 °FCool.1 mph77%30.06 "HgN/A
9:00 PM50 °FCool.3 mph62%30.03 "HgN/A
8:00 PM56 °FRefreshingly cool.3 mph48%29.99 "HgN/A
7:00 PM59 °FRefreshingly cool.5 mph38%29.98 "HgN/A
6:00 PM60 °FRefreshingly cool.7 mph39%29.99 "HgN/A
5:00 PM59 °FRefreshingly cool.7 mph40%30.00 "HgN/A
4:00 PM59 °FRefreshingly cool.9 mph39%30.01 "HgN/A
3:00 PM58 °FRefreshingly cool.12 mph41%30.03 "HgN/A
2:00 PM56 °FRefreshingly cool.7 mph44%30.04 "HgN/A
1:00 PM54 °FCool.5 mph48%30.06 "HgN/A
12:00 PM52 °FCool.5 mph50%30.08 "HgN/A
11:00 AM49 °FCool.2 mph59%30.10 "HgN/A
10:00 AM45 °FCool.2 mph71%30.12 "HgN/A
9:00 AM41 °FQuite cool.1 mph82%30.14 "HgN/A
8:00 AM37 °FChilly.No wind92%30.15 "HgN/A
7:00 AM32 °FChilly.1 mph100%30.16 "HgN/A
6:00 AM31 °FChilly.No wind100%30.15 "HgN/A
5:00 AM32 °FChilly.1 mph99%30.13 "HgN/A
4:00 AM33 °FChilly.1 mph97%30.12 "HgN/A
3:00 AM36 °FChilly.1 mph92%30.11 "HgN/A
2:00 AM35 °FChilly.2 mph94%30.11 "HgN/A
Weather by CustomWeather, © 2016

See weather overviewHow to use our weather pages